Location: ????????
(54.8751°N, 38.5756°E)
Time: 02:06:56
(UTC+00:00)

MSX - Visible Passes

Search period start: 19 July 2024 00:00
Search period end: 29 July 2024 00:00
Orbit: 894 x 905 km, 99.0° (Epoch: 18 July)

Date Brightness Start Highest point End Pass type
(mag) Time Alt. Az. Time Alt. Az. Time Alt. Az.
19 Jul 6.0 21:45:30 10° NE 21:48:54 16° E 21:52:19 10° ESE visible
19 Jul 4.0 23:25:50 10° NNE 23:31:38 73° ESE 23:37:16 11° S visible
20 Jul 5.9 21:47:57 10° NE 21:51:31 17° E 21:55:04 10° ESE visible
20 Jul 4.0 23:28:24 10° NNE 23:34:12 76° ESE 23:39:49 11° SSW visible
21 Jul 5.9 21:50:25 10° NE 21:54:07 17° E 21:57:49 10° SE visible
21 Jul 3.9 23:30:57 10° NNE 23:36:46 79° ESE 23:42:22 11° SSW visible
22 Jul 5.8 21:52:53 10° NE 21:56:44 18° E 22:00:34 10° SE visible
22 Jul 3.9 23:33:31 10° NNE 23:39:20 82° ESE 23:44:54 11° SSW visible
23 Jul 5.8 21:55:22 10° NE 21:59:20 19° E 22:03:17 10° SE visible
23 Jul 3.9 23:36:05 10° NNE 23:41:54 85° ESE 23:47:26 11° SSW visible
24 Jul 5.8 21:57:52 10° NE 22:01:57 19° E 22:06:01 10° SE visible
24 Jul 3.9 23:38:39 10° NNE 23:44:28 88° ESE 23:49:59 11° SSW visible
25 Jul 5.7 22:00:21 10° NE 22:04:33 20° E 22:08:44 10° SE visible
25 Jul 3.9 23:41:13 10° NNE 23:47:02 90° WNW 23:52:31 12° SSW visible
26 Jul 5.7 22:02:51 10° NE 22:07:10 21° E 22:11:26 10° SE visible
26 Jul 3.9 23:43:47 10° NNE 23:49:36 87° WNW 23:55:03 12° SSW visible
27 Jul 5.6 22:05:21 10° NE 22:09:45 22° E 22:14:09 10° SE visible
27 Jul 3.9 23:46:21 10° NNE 23:52:10 84° WNW 23:57:35 12° SSW visible
28 Jul 5.6 22:07:51 10° NE 22:12:22 23° E 22:16:50 10° SE visible
